Location: Eferding
(48.3167°N, 14.0167°E)
Time: 08:42:08
(UTC+00:00)

Cosmos 2233 Rocket - Pass Details

Date: 12 November 2019
Orbit: 953 x 990 km, 82.9° (Epoch: 10 December)

Event Time Altitude Azimuth Distance (km) Brightness Sun altitude
Rises 16:03:27 0° 353° (N) 3,717 6.9 -6.0°
Reaches altitude 10° 16:06:04 10° 358° (N) 2,764 6.2 -6.4°
Maximum altitude 16:12:17 55° 76° (ENE) 1,178 4.1 -7.4°
Drops below altitude 10° 16:18:26 10° 153° (SSE) 2,733 6.3 -8.4°
Sets 16:20:59 0° 158° (SSE) 3,673 7.0 -8.8°
